Location: *
(31.2983°S, 151.4094°E)
Time: 15:40:10
(UTC+00:00)

Cosmos 1943 - Pass Details

Date: 25 August 2019
Orbit: 832 x 851 km, 71.0° (Epoch: 23 September)

Event Time Altitude Azimuth Distance (km) Brightness Sun altitude
Rises 19:09:47 0° 341° (NNW) 3,387 6.2 -15.4°
Reaches altitude 10° 19:12:13 10° 341° (NNW) 2,456 5.5 -14.9°
Maximum altitude 19:17:52 89° 250° (WSW) 850 3.2 -13.7°
Drops below altitude 10° 19:23:34 10° 160° (SSE) 2,473 5.8 -12.5°
Sets 19:26:01 0° 160° (SSE) 3,411 6.6 -12.0°
